Location: Unspecified
(0.0000°N, 0.0000°E)
Time: 19:08:52
(UTC+00:00)

S-56A Canister/Altair - Pass Details

Date: 24 November 2019
Orbit: 633 x 2499 km, 38.9° (Epoch: 06 December)

Event Time Altitude Azimuth Distance (km) Brightness Sun altitude
Rises 12:15:52 0° 235° (SW) 5,984 12.3 68.2°
Reaches altitude 10° 12:19:41 10° 238° (WSW) 5,080 12.1 67.9°
Maximum altitude 12:34:39 66° 317° (NW) 2,599 11.2 66.3°
Drops below altitude 10° 12:47:51 10° 37° (NE) 4,522 11.3 64.6°
Sets 12:51:04 0° 41° (NE) 5,316 11.6 64.1°
